Content
SEND FEEDBACK

Daily
Averages
Monthly
Summary
United States of America

MOUNT IDA, ARKANSAS


Home > North America > United States > Arkansas
Elevation: 697 feet     Latitude: 34 32N     Longitude: 093 36W

WEATHER
 
SELECT A DAY
Number of Records: 171,965;   Date Range: 3/1/99 - 8/30/14
 
SHARE

PRINT THIS DATA

[ ← Previous Day ]
WEATHER ALMANAC - JANUARY 23, 2013
[ Next Day → ]
[ °C ]   °F
Weather ElementAverageHighLow
Temperature46 °F69.1 °F (2:53 pm)28.9 °F (3:53 am)
Dewpoint37.1 °F48 °F (4:53 pm)26.1 °F (2:53 am)
Humidity74.3 %96 % (11:53 pm)44 % (1:53 pm)
Barometer30.23 in30.31 in (1:53 am)30.15 in (2:53 pm)
Wind Speed0.8 mph8.1 mph (2:53 pm)
Weather ElementAverage
Visibility9.7 mi
Wind DirectionNNE (24.3 °)

Weather ElementTotal
Precipitation---
Heating Degree Days16 (Base 65)
Averaged from 23 records on January 23, 2013
WEATHER CONDITIONS BREAKOUT
WIND DIRECTION BREAKOUT
WEATHER BY HOUR - JANUARY 23, 2013
[ °C ]   °F
Local TimeTemperatureDewpointHumidityBarometerVisibilityWind DirectionWind SpeedGust SpeedPrecipitationEventsConditions
1:53 AM30.9 °F27.0 °F85 %30.31 in10.0 miCalmClear
2:53 AM30.0 °F26.1 °F85 %30.31 in10.0 miCalmClear
3:53 AM28.9 °F26.1 °F89 %30.30 in10.0 miCalmClear
4:53 AM28.9 °F27.0 °F92 %30.28 in10.0 miCalmMostly Cloudy
5:53 AM30.0 °F27.0 °F88 %30.29 in10.0 miCalmMostly Cloudy
6:53 AM28.9 °F27.0 °F92 %30.30 in10.0 miCalmScattered Clouds
7:53 AM30.9 °F28.0 °F89 %30.30 in10.0 miCalmOvercast
8:53 AM35.1 °F28.9 °F78 %30.30 in10.0 miCalmMostly Cloudy
9:53 AM41.0 °F30.0 °F65 %30.31 in10.0 miCalmOvercast
10:53 AM48.9 °F33.1 °F54 %30.29 in10.0 miCalmMostly Cloudy
11:53 AM54.0 °F36.0 °F51 %30.26 in10.0 miWest (280°)3.5 mphClear
12:53 PM61.0 °F39.9 °F46 %30.20 in10.0 miCalmClear
1:53 PM66.9 °F44.1 °F44 %30.17 in10.0 miVariable3.5 mphClear
2:53 PM69.1 °F46.0 °F44 %30.15 in10.0 miWest (280°)8.1 mphClear
3:53 PM66.9 °F46.9 °F49 %30.16 in10.0 miVariable3.5 mphClear
4:53 PM64.0 °F48.0 °F56 %30.16 in10.0 miCalmClear
5:53 PM60.1 °F48.0 °F64 %30.17 in10.0 miCalmClear
6:53 PM54.0 °F46.9 °F77 %30.17 in10.0 miCalmClear
7:53 PM50.0 °F46.0 °F86 %30.18 in10.0 miCalmClear
8:53 PM46.9 °F45.0 °F93 %30.19 in10.0 miCalmClear
9:53 PM46.0 °F44.1 °F93 %30.19 in9.0 miCalmClear
10:53 PM44.1 °F42.1 °F93 %30.20 in8.0 miCalmClear
11:53 PM42.1 °F41.0 °F96 %30.19 in5.0 miCalmClear
Hourly data recorded from KMWT, located miles away from Mount Ida, Arkansas







STORIES FROM OUR PARTNERS